Simultaneous Nadir Overpasses (SNOs) Predictions

Prediction of SNOs between GOES-15 and NPP Satellite Orbit:

Table of predicted SNOs for the next 14.0 days since TLE Epoch: 4/20/2019
Index Date Time (GOES-15) GOES-15 Lat,Lon NPP Lat,Lon Distance(km) Time Diff (sec)
1 04/20/2019 22:01:52 -0.06,-127.75 -0.49,-129.52 201.88 80
2 04/21/2019 21:45:49 -0.06,-127.79 0.56,-124.99 318.54 80
3 04/23/2019 10:07:37 0.06,-127.85 0.63,-130.26 276.19 80
4 04/24/2019 09:46:14 0.06,-127.88 -0.42,-125.74 243.78 80
5 04/25/2019 22:08:11 -0.06,-127.93 -0.76,-131.05 355.79 80
6 04/26/2019 21:52:06 -0.07,-127.96 0.24,-126.52 164.26 80
7 04/28/2019 10:13:56 0.06,-128.02 0.88,-131.80 430.70 80
8 04/29/2019 09:52:31 0.07,-128.05 -0.11,-127.27 89.01 80
9 05/01/2019 21:58:24 -0.07,-128.12 -0.04,-128.05 8.34 80




NCC Satellite Simultaneous Nadir Overpasses (SNOs) Prediction Service
